Regional Weather Roundup
Issued by NWS

Home | Current Version | Previous Version | Graphics & Text | Print | Product List | Glossary On
Versions: 1 2 3 4 5 6 7 8 9 10 11 12 13 14 15 16 17 18 19 20 21 22 23 24 25 26 27 28 29 30 31 32 33 34 35 36 37 38 39 40 41 42 43 44 45 46 47 48 49 50
000
ASUS43 KDMX 281307
RWRIA

WEATHER ROUNDUP FOR IOWA
NATIONAL WEATHER SERVICE DES MOINES IA
700 AM CST WED JAN 28 2015

NOTE: "FAIR" INDICATES FEW OR NO CLOUDS BELOW 12,000 FEET WITH NO
SIGNIFICANT WEATHER AND/OR OBSTRUCTIONS TO VISIBILITY.

* - THESE STATIONS ARE NOT NWS STATIONS...THUS NOT UNDER NWS
QUALITY CONTROL.  THEY ALSO DO NOT REPORT WEATHER SUCH
AS PRECIPITATION OR FOG.

IAZ001>003-012>014-020>022-031>034-043>046-281400-
   NORTHWEST IOWA

CITY           SKY/WX    TMP DP  RH WIND       PRES   REMARKS
CARROLL *      CLOUDY    30  30 100 SE17      29.94F FOG     WCI  18
CHEROKEE *     CLOUDY    30  30 100 SE9       29.91S FOG     WCI  22
DENISON *      CLEAR     32  32 100 SE12G18   29.88F WCI  23
LE MARS *      CLEAR     32  30  93 SE8       29.86F WCI  25
ORANGE CITY *  CLEAR     32  28  86 SE10      29.85F WCI  24
SHELDON *      MOCLDY    32  32 100 SE18G24   29.85F WCI  20
SIOUX CITY     CLEAR     32  29  88 SE13      29.86F WCI  22
SPENCER        CLOUDY    31  29  92 SE17      29.90F FOG     WCI  19
STORM LAKE *   CLOUDY    30  30 100 SE18G25   29.91S FOG     WCI  18
$$

IAZ055>058-069>071-079>083-090>094-281400-
   SOUTHWEST IOWA

CITY           SKY/WX    TMP DP  RH WIND       PRES   REMARKS
ATLANTIC *     CLEAR     32  28  86 SE6G15    29.93F WCI  26
AUDUBON *      CLEAR     30  27  86 SE10      29.94F FOG     WCI  21
CLARINDA *     CLEAR     34  30  86 SE8       29.94F WCI  27
COUNCIL BLFS * CLEAR     32  32 100 SE14      29.87F WCI  22
CRESTON *      CLEAR     28  28 100 SE16      29.96F FOG     WCI  17
HARLAN  *      CLEAR     30  32 100 SE9       29.95F WCI  22
LAMONI         PTCLDY    29  27  92 SE7       29.99R WCI  22
RED OAK *      CLEAR     32  30  93 SE9       29.92F WCI  24
SHENANDOAH *   CLEAR     34  30  86 E12       29.92F WCI  25
$$

IAZ047>049-059>061-072>074-084-281400-
   CENTRAL IOWA

CITY           SKY/WX    TMP DP  RH WIND       PRES   REMARKS
AMES           CLOUDY    30  28  92 SE14G25   30.02F FOG     WCI  19
ANKENY *       CLOUDY    30  30 100 SE14G21   30.03S FOG     WCI  20
CHARITON *     MOCLDY    28  27  93 SE14      30.01F FOG     WCI  17
DES MOINES     CLOUDY    31  27  85 SE13G21   30.02F FOG     WCI  21
GRINNELL*      CLOUDY    30  28  93 SE16G22   30.06F FOG     WCI  19
KNOXVILLE *    CLOUDY    28  27  93 SE14G20   30.03F FOG     WCI  17
MARSHALLTOWN   FOG       29  28  96 SE16G24   30.05F VSB 3/4 WCI  17
PELLA *        CLOUDY    30  28  93 SE12G17   30.07F FOG     WCI  21
PERRY *          N/A     32  30  93 SE16      29.98F FOG     WCI  21
$$

IAZ004>006-015-016-023>025-035-036-281400-
   NORTH CENTRAL IOWA

CITY           SKY/WX    TMP DP  RH WIND       PRES   REMARKS
ALGONA *       CLOUDY    30  30 100 S21       29.96F FOG     WCI  17
CLARION *      MIX PCPN  30  30 100 SE23G32   29.99F VSB 3/4 WCI  17
ESTHERVILLE    CLOUDY    30  29  96 S24       29.91F FOG     WCI  16
FORT DODGE *   CLOUDY    30  27  86 SE13G20   29.97F WCI  20
MASON CITY     FOG       27  26  96 SE23G30   30.03S VSB 1/2 WCI  12
FOREST CITY *  FOG       30  28  93 SE20      29.99F VSB 3/4 WCI  18
IOWA FALLS *   FOG       28  28 100 SE17      30.05R VSB 1/2 WCI  16
$$

IAZ007>011-017>019-026>030-037>042-050>054-066-281400-
   NORTHEAST IOWA

CITY           SKY/WX    TMP DP  RH WIND       PRES   REMARKS
CEDAR RAPIDS   CLOUDY    28  28 100 SE12G20   30.13S FOG     WCI  18
CHARLES CITY * FOG       27  27 100 SE17G25   30.06F VSB 1/2 WCI  14
CLINTON *      CLOUDY    28  23  80 S12       30.23F WCI  18
DECORAH *      CLOUDY    25  25 100 SE12G20   30.09F FOG     WCI  14
DUBUQUE        CLOUDY    25  23  92 S14       30.16F FOG     WCI  13
MONTICELLO *   CLOUDY    28  28 100 SE13G22   30.16F FOG     WCI  18
OELWEIN *      FOG       27  25  93 SE15      30.11S VSB 1   WCI  15
WATERLOO       CLOUDY    26  26 100 SE15G24   30.09F FOG     WCI  14
$$

IAZ064-065-067-068-078-281400-
   EAST CENTRAL IOWA

CITY           SKY/WX    TMP DP  RH WIND       PRES   REMARKS
DAVENPORT      MOCLDY    27  21  78 S15       30.21R WCI  15
IOWA CITY      CLOUDY    29  28  96 SE14      30.17F FOG     WCI  18
MT. PLEASANT * PTCLDY    28  27  93 SE13      30.14F FOG     WCI  18
MUSCATINE *    PTCLDY    28  25  86 SE9G16    30.19F WCI  20
QUAD CITIES    PTCLDY    25  21  85 SE7       30.21R WCI  17
$$

IAZ062-063-075>077-085>089-095>099-281400-
   SOUTHEAST IOWA

CITY           SKY/WX    TMP DP  RH WIND       PRES   REMARKS
BURLINGTON     PTCLDY    27  24  89 SE10      30.16F WCI  17
FAIRFIELD *    CLEAR     28  27  93 SE15      30.11F FOG     WCI  17
FORT MADISON * CLEAR     27  25  93 SE14      30.16F WCI  15
KEOKUK *       CLEAR     28  27  93 SE14      30.15F WCI  17
OSKALOOSA *      N/A     28  27  93 SE15      30.09S FOG     WCI  17
CENTERVILLE *    N/A     27  27 100 E13G18    30.05F WCI  16
OTTUMWA        PTCLDY    28  26  92 SE14      30.07F WCI  17
WASHINGTON *   MOCLDY    30  30 100 SE16      30.13F FOG     WCI  19
$$

ABBREVIATIONS USED IN REMARKS
   TC - TEMPERATURES IN CELSIUS
  WCI - WIND CHILL INDEX
   HX - HEAT INDEX
  VSB - VISIBILITY
$$




USA.gov is the U.S. government's official web portal to all federal, state and local government web resources and services.